Van Nuys, CA

10:47 PM PDT on May 24, 2017 (GMT -0700)
Van Nuys

Weather History for KVNY - May, 2013

Change the Weather History Date:

Friday, May 17, 2013

  Actual Average Record
Temperature  
Mean Temperature 68 °F -  
Max Temperature 77 °F 75 °F 99 °F (2008)
Min Temperature 60 °F 54 °F 48 °F (2011)
Cooling Degree Days 2    
Growing Degree Days 18 (Base 50)    
Moisture  
Dew Point 52 °F    
Average Humidity 61    
Maximum Humidity 75    
Minimum Humidity 44    
Precipitation  
Precipitation 0.00 in - - ()
Sea Level Pressure  
Sea Level Pressure 29.93 in    
Wind  
Wind Speed 6 mph (SSE)    
Max Wind Speed 15 mph    
Max Gust Speed 16 mph    
Visibility 10 miles    
Events      
Averages and records for this station are not official NWS values.
T = Trace of Precipitation, MM = Missing Value Source: NWS Daily Summary

Daily Weather History Graph

Daily Weather History Graph

Search for Another Location

Airport or City:

Trip Planner

Search our weather history database for the weather conditions in past years. The results will help you decide how hot, cold, wet, or windy it might be!

Date:

Astronomy

May. 17, 2013 Rise Set
Actual Time 5:50 AM PDT 7:50 PM PDT
Civil Twilight 5:22 AM PDT 8:18 PM PDT
Nautical Twilight 4:48 AM PDT 8:52 PM PDT
Astronomical Twilight 4:12 AM PDT 9:29 PM PDT
Moon 12:19 PM PDT (5/17) 12:52 AM PDT (5/17)
Length of Visible Light 14h 56m
Length of Day
14h 00m
Waxing Crescent, 46% of the Moon is Illuminated
May 17
Waxing Crescent
May 17
First Quarter
May 24
Full
May 31
Last Quarter
Jun 8
New

Hourly Weather History & Observations

Time (PDT) Temp. Dew Point Humidity Pressure Visibility Wind Dir Wind Speed Gust Speed Precip Events Conditions
12:51 AM 60.1 °F 51.1 °F 72% 29.90 in 10.0 mi SE 5.8 mph - N/A   Haze
1:32 AM 60.8 °F 51.8 °F 72% 29.93 in 10.0 mi SSE 3.5 mph - N/A   Haze
1:51 AM 60.1 °F 52.0 °F 75% 29.90 in 10.0 mi South 3.5 mph - N/A   Haze
2:51 AM 61.0 °F 52.0 °F 72% 29.89 in 10.0 mi SE 4.6 mph - N/A   Haze
3:51 AM 61.0 °F 52.0 °F 72% 29.89 in 10.0 mi SSE 4.6 mph - N/A   Haze
4:51 AM 61.0 °F 52.0 °F 72% 29.89 in 10.0 mi SE 3.5 mph - N/A   Haze
5:51 AM 60.1 °F 52.0 °F 75% 29.91 in 10.0 mi Calm Calm - N/A   Haze
6:51 AM 61.0 °F 53.1 °F 75% 29.93 in 10.0 mi South 3.5 mph - N/A   Haze
7:51 AM 62.1 °F 53.1 °F 72% 29.94 in 9.0 mi Calm Calm - N/A   Haze
8:51 AM 64.9 °F 52.0 °F 63% 29.94 in 10.0 mi South 3.5 mph - N/A   Mostly Cloudy
9:22 AM 66.2 °F 51.8 °F 60% 29.96 in 10.0 mi Variable 4.6 mph - N/A   Scattered Clouds
9:51 AM 68.0 °F 51.1 °F 55% 29.94 in 10.0 mi SSE 3.5 mph - N/A   Clear
10:51 AM 71.1 °F 51.1 °F 49% 29.93 in 8.0 mi SSE 5.8 mph - N/A   Clear
11:51 AM 75.0 °F 53.1 °F 46% 29.93 in 10.0 mi South 12.7 mph 16.1 mph N/A   Mostly Cloudy
12:51 PM 73.9 °F 52.0 °F 46% 29.92 in 10.0 mi South 13.8 mph - N/A   Scattered Clouds
1:51 PM 75.0 °F 52.0 °F 44% 29.93 in 10.0 mi South 15.0 mph - N/A   Mostly Cloudy
2:51 PM 75.0 °F 52.0 °F 44% 29.92 in 10.0 mi South 13.8 mph - N/A   Partly Cloudy
3:51 PM 75.0 °F 52.0 °F 44% 29.91 in 10.0 mi South 15.0 mph - N/A   Mostly Cloudy
4:51 PM 73.9 °F 52.0 °F 46% 29.91 in 10.0 mi SSE 15.0 mph - N/A   Scattered Clouds
5:51 PM 70.0 °F 51.1 °F 51% 29.91 in 10.0 mi SSE 12.7 mph - N/A   Scattered Clouds
6:51 PM 69.1 °F 51.1 °F 53% 29.92 in 10.0 mi SE 10.4 mph - N/A   Clear
7:51 PM 64.9 °F 51.1 °F 61% 29.93 in 10.0 mi SSE 8.1 mph - N/A   Clear
8:51 PM 63.0 °F 52.0 °F 67% 29.95 in 10.0 mi SSE 5.8 mph - N/A   Clear
9:51 PM 62.1 °F 53.1 °F 72% 29.96 in 10.0 mi ESE 4.6 mph - N/A   Clear
10:51 PM 62.1 °F 51.1 °F 67% 29.97 in 10.0 mi ESE 6.9 mph - N/A   Clear
11:51 PM 61.0 °F 51.1 °F 70% 29.97 in 10.0 mi ESE 3.5 mph - N/A   Clear